This is the latest recevied weather packets stored in our database for station/object W1ERB-13. If no packets are shown the sender has not sent any weather packets the latest 10 day(s).
| Time | Temp. | Humidity | Pressure | Rain* | Wind** | Luminosity | Snow |
|---|---|---|---|---|---|---|---|
| 1777912251 | 19.44° C | 34% | 1009.9 hPa | 0 mm | - | 720 W/m² | - |
| 1777911947 | 20° C | 33% | 1009.9 hPa | 0 mm | - | 722 W/m² | - |
| 1777911644 | 18.89° C | 33% | 1010 hPa | 0 mm | - | 719 W/m² | - |
| 1777911340 | 18.89° C | 31% | 1010.4 hPa | 0 mm | - | 721 W/m² | - |
| 1777911038 | 18.89° C | 32% | 1010.3 hPa | 0 mm | - | 721 W/m² | - |
| 1777910735 | 18.89° C | 34% | 1010.2 hPa | 0 mm | - | 689 W/m² | - |
| 1777910432 | 18.89° C | 33% | 1010.4 hPa | 0 mm | - | 629 W/m² | - |
| 1777910128 | 18.89° C | 31% | 1010.3 hPa | 0 mm | - | 626 W/m² | - |
| 1777909826 | 18.89° C | 31% | 1010.5 hPa | 0 mm | - | 694 W/m² | - |
| 1777909522 | 18.89° C | 34% | 1010.7 hPa | 0 mm | - | 711 W/m² | - |
| 1777909220 | 18.33° C | 33% | 1011 hPa | 0 mm | - | 725 W/m² | - |
| 1777908918 | 18.33° C | 32% | 1011 hPa | 0 mm | - | 714 W/m² | - |
| 1777908616 | 18.33° C | 32% | 1010.8 hPa | 0 mm | - | 217 W/m² | - |
| 1777908312 | 18.33° C | 32% | 1010.8 hPa | 0 mm | - | 731 W/m² | - |
| 1777908008 | 18.33° C | 32% | 1011.1 hPa | 0 mm | - | 466 W/m² | - |
| 1777907704 | 18.33° C | 33% | 1011.6 hPa | 0 mm | - | 754 W/m² | - |
| 1777907399 | 18.89° C | 31% | 1011 hPa | 0 mm | - | 702 W/m² | - |
| 1777907096 | 18.89° C | 33% | 1011 hPa | 0 mm | - | 787 W/m² | - |
| 1777906794 | 18.33° C | 34% | 1011.1 hPa | 0 mm | - | 806 W/m² | - |
| 1777906491 | 17.78° C | 35% | 1011.1 hPa | 0 mm | - | 711 W/m² | - |
| 1777906187 | 18.33° C | 35% | 1011.1 hPa | 0 mm | - | 709 W/m² | - |
| 1777905883 | 18.33° C | 37% | 1011.2 hPa | 0 mm | - | 759 W/m² | - |
| 1777905580 | 18.33° C | 34% | 1011.2 hPa | 0 mm | - | 801 W/m² | - |
| 1777905277 | 18.33° C | 35% | 1011.3 hPa | 0 mm | - | 808 W/m² | - |
| 1777904974 | 18.33° C | 33% | 1011.2 hPa | 0 mm | - | 793 W/m² | - |
* Rain latest hour (hover to see other rain measurements)
** Current wind speed in m/s (hover to see current wind gust speed)